Time,TemperatureF,DewpointF,PressureIn,WindDirection,WindDirectionDegrees,WindSpeedMPH,WindSpeedGustMPH,Humidity,HourlyPrecipIn,Conditions,Clouds,dailyrainin,SoftwareType,DateUTC
2013-12-11 00:04:00,18.0,0.0,30.24,WSW,254,0.0,3.0,47,-99.99,,,-99.99,,2013-12-11 08:04:00,
2013-12-11 00:12:00,18.0,0.0,30.24,NW,309,3.0,3.0,48,-99.99,,,-99.99,,2013-12-11 08:12:00,
2013-12-11 00:20:00,18.0,0.0,30.25,NW,324,3.0,3.0,50,-99.99,,,-99.99,,2013-12-11 08:20:00,
2013-12-11 00:28:00,18.0,0.0,30.25,WNW,287,2.0,3.0,50,-99.99,,,-99.99,,2013-12-11 08:28:00,
2013-12-11 00:36:00,19.0,0.0,30.24,WNW,299,1.0,2.0,48,-99.99,,,-99.99,,2013-12-11 08:36:00,
2013-12-11 00:44:00,20.0,0.0,30.24,SW,235,0.0,2.0,46,-99.99,,,-99.99,,2013-12-11 08:44:00,
2013-12-11 00:52:00,19.0,0.0,30.24,SW,215,2.0,2.0,48,-99.99,,,-99.99,,2013-12-11 08:52:00,
2013-12-11 01:00:00,21.0,0.0,30.24,SSW,212,2.0,2.0,46,-99.99,,,-99.99,,2013-12-11 09:00:00,
2013-12-11 01:08:00,20.0,0.0,30.24,SW,224,1.0,3.0,46,-99.99,,,-99.99,,2013-12-11 09:08:00,
2013-12-11 01:16:00,19.0,0.0,30.24,SW,232,2.0,3.0,47,-99.99,,,-99.99,,2013-12-11 09:16:00,
2013-12-11 01:24:00,18.0,0.0,30.24,West,260,2.0,3.0,52,-99.99,,,-99.99,,2013-12-11 09:24:00,
2013-12-11 01:32:00,19.0,0.0,30.25,WSW,256,1.0,3.0,46,-99.99,,,-99.99,,2013-12-11 09:32:00,
2013-12-11 01:40:00,18.0,0.0,30.25,NNE,33,1.0,3.0,50,-99.99,,,-99.99,,2013-12-11 09:40:00,
2013-12-11 01:48:00,18.0,0.0,30.25,NNE,33,0.0,3.0,48,-99.99,,,-99.99,,2013-12-11 09:48:00,
2013-12-11 01:56:00,18.0,0.0,30.25,NNE,33,0.0,1.0,50,-99.99,,,-99.99,,2013-12-11 09:56:00,
2013-12-11 02:04:00,19.0,0.0,30.25,NNE,33,1.0,1.0,50,-99.99,,,-99.99,,2013-12-11 10:04:00,
2013-12-11 02:12:00,18.0,0.0,30.25,WNW,288,3.0,3.0,47,-99.99,,,-99.99,,2013-12-11 10:12:00,
2013-12-11 02:20:00,18.0,0.0,30.25,NNE,31,1.0,3.0,49,-99.99,,,-99.99,,2013-12-11 10:20:00,
2013-12-11 02:28:00,18.0,0.0,30.25,NNE,18,2.0,3.0,47,-99.99,,,-99.99,,2013-12-11 10:28:00,
2013-12-11 02:36:00,18.0,0.0,30.25,North,11,1.0,2.0,51,-99.99,,,-99.99,,2013-12-11 10:36:00,
2013-12-11 02:44:00,19.0,0.0,30.25,SW,228,0.0,2.0,50,-99.99,,,-99.99,,2013-12-11 10:44:00,
2013-12-11 02:52:00,19.0,0.0,30.25,West,268,0.0,1.0,48,-99.99,,,-99.99,,2013-12-11 10:52:00,
2013-12-11 03:00:00,19.0,0.0,30.25,West,268,0.0,1.0,46,-99.99,,,-99.99,,2013-12-11 11:00:00,
2013-12-11 03:08:00,18.0,0.0,30.25,West,268,0.0,0.0,49,-99.99,,,-99.99,,2013-12-11 11:08:00,
2013-12-11 03:16:00,17.0,0.0,30.25,North,349,1.0,2.0,53,-99.99,,,-99.99,,2013-12-11 11:16:00,
2013-12-11 03:24:00,18.0,0.0,30.25,North,9,1.0,2.0,49,-99.99,,,-99.99,,2013-12-11 11:24:00,
2013-12-11 03:32:00,20.0,0.0,30.25,NNW,348,0.0,2.0,45,-99.99,,,-99.99,,2013-12-11 11:32:00,
2013-12-11 03:40:00,19.0,0.0,30.25,West,264,3.0,3.0,43,-99.99,,,-99.99,,2013-12-11 11:40:00,
2013-12-11 03:48:00,16.0,0.0,30.25,WNW,297,3.0,6.0,50,-99.99,,,-99.99,,2013-12-11 11:48:00,
2013-12-11 03:56:00,16.0,0.0,30.25,WNW,297,2.0,6.0,49,-99.99,,,-99.99,,2013-12-11 11:56:00,
2013-12-11 04:04:00,16.0,0.0,30.25,WNW,299,5.0,5.0,48,-99.99,,,-99.99,,2013-12-11 12:04:00,
2013-12-11 04:12:00,15.0,0.0,30.25,NW,304,3.0,5.0,50,-99.99,,,-99.99,,2013-12-11 12:12:00,
2013-12-11 04:20:00,15.0,0.0,30.25,NNW,334,5.0,5.0,51,-99.99,,,-99.99,,2013-12-11 12:20:00,
2013-12-11 04:28:00,16.0,0.0,30.25,North,351,6.0,6.0,48,-99.99,,,-99.99,,2013-12-11 12:28:00,
2013-12-11 04:36:00,16.0,0.0,30.25,NW,321,5.0,6.0,47,-99.99,,,-99.99,,2013-12-11 12:36:00,
2013-12-11 04:44:00,16.0,0.0,30.25,West,263,5.0,6.0,49,-99.99,,,-99.99,,2013-12-11 12:44:00,
2013-12-11 04:52:00,15.0,0.0,30.25,WSW,256,5.0,6.0,49,-99.99,,,-99.99,,2013-12-11 12:52:00,
2013-12-11 05:00:00,15.0,0.0,30.25,SSW,208,3.0,5.0,51,-99.99,,,-99.99,,2013-12-11 13:00:00,
2013-12-11 05:08:00,16.0,0.0,30.26,WSW,248,2.0,3.0,50,-99.99,,,-99.99,,2013-12-11 13:08:00,
2013-12-11 05:16:00,16.0,0.0,30.26,SW,226,3.0,5.0,48,-99.99,,,-99.99,,2013-12-11 13:16:00,
2013-12-11 05:24:00,14.0,0.0,30.26,South,190,1.0,5.0,52,-99.99,,,-99.99,,2013-12-11 13:24:00,
2013-12-11 05:32:00,15.0,0.0,30.26,SSW,192,2.0,2.0,51,-99.99,,,-99.99,,2013-12-11 13:32:00,
2013-12-11 05:40:00,17.0,0.0,30.27,South,177,2.0,2.0,49,-99.99,,,-99.99,,2013-12-11 13:40:00,
2013-12-11 05:48:00,18.0,0.0,30.27,SSW,194,2.0,2.0,53,-99.99,,,-99.99,,2013-12-11 13:48:00,
2013-12-11 05:56:00,18.0,0.0,30.27,SW,227,3.0,3.0,50,-99.99,,,-99.99,,2013-12-11 13:56:00,
2013-12-11 06:04:00,17.0,0.0,30.27,South,182,3.0,3.0,49,-99.99,,,-99.99,,2013-12-11 14:04:00,
2013-12-11 06:12:00,17.0,0.0,30.27,SSE,163,5.0,5.0,51,-99.99,,,-99.99,,2013-12-11 14:12:00,
2013-12-11 06:20:00,15.0,0.0,30.28,West,266,3.0,6.0,53,-99.99,,,-99.99,,2013-12-11 14:20:00,
2013-12-11 06:28:00,14.0,0.0,30.28,WNW,290,2.0,6.0,55,-99.99,,,-99.99,,2013-12-11 14:28:00,
2013-12-11 06:36:00,13.0,0.0,30.28,NW,324,2.0,3.0,55,-99.99,,,-99.99,,2013-12-11 14:36:00,
2013-12-11 06:44:00,13.0,0.0,30.29,North,10,3.0,5.0,56,-99.99,,,-99.99,,2013-12-11 14:44:00,
2013-12-11 06:52:00,13.0,0.0,30.29,NNE,32,1.0,3.0,59,-99.99,,,-99.99,,2013-12-11 14:52:00,
2013-12-11 07:00:00,14.0,0.0,30.29,WNW,302,0.0,2.0,57,-99.99,,,-99.99,,2013-12-11 15:00:00,
2013-12-11 07:08:00,14.0,0.0,30.29,North,10,5.0,5.0,58,-99.99,,,-99.99,,2013-12-11 15:08:00,
2013-12-11 07:16:00,16.0,0.0,30.29,NNE,16,3.0,5.0,55,-99.99,,,-99.99,,2013-12-11 15:16:00,
2013-12-11 07:24:00,17.0,0.0,30.30,North,355,1.0,3.0,54,-99.99,,,-99.99,,2013-12-11 15:24:00,
2013-12-11 07:31:00,18.0,0.0,30.30,West,268,2.0,2.0,52,-99.99,,,-99.99,,2013-12-11 15:31:00,
2013-12-11 07:40:00,19.0,0.0,30.30,North,7,0.0,2.0,48,-99.99,,,-99.99,,2013-12-11 15:40:00,
2013-12-11 07:48:00,22.0,0.0,30.30,NE,35,0.0,2.0,49,-99.99,,,-99.99,,2013-12-11 15:48:00,
2013-12-11 07:56:00,23.0,0.0,30.30,SE,146,2.0,2.0,43,-99.99,,,-99.99,,2013-12-11 15:56:00,
2013-12-11 08:04:00,22.0,0.0,30.31,North,350,3.0,5.0,45,-99.99,,,-99.99,,2013-12-11 16:04:00,
2013-12-11 08:12:00,24.0,0.0,30.31,NNW,342,1.0,3.0,42,-99.99,,,-99.99,,2013-12-11 16:12:00,
2013-12-11 08:20:00,27.0,0.0,30.31,East,85,1.0,2.0,40,-99.99,,,-99.99,,2013-12-11 16:20:00,
2013-12-11 08:28:00,28.0,0.0,30.32,West,259,1.0,2.0,37,-99.99,,,-99.99,,2013-12-11 16:28:00,
2013-12-11 08:36:00,31.0,0.0,30.32,West,264,0.0,1.0,33,-99.99,,,-99.99,,2013-12-11 16:36:00,
2013-12-11 08:44:00,30.0,0.0,30.32,SSE,151,1.0,1.0,33,-99.99,,,-99.99,,2013-12-11 16:44:00,
2013-12-11 08:52:00,32.0,0.0,30.32,North,350,0.0,1.0,37,-99.99,,,-99.99,,2013-12-11 16:52:00,
2013-12-11 09:00:00,31.0,0.0,30.33,ESE,119,2.0,2.0,36,-99.99,,,-99.99,,2013-12-11 17:00:00,
2013-12-11 09:08:00,33.0,0.0,30.33,SW,215,0.0,2.0,33,-99.99,,,-99.99,,2013-12-11 17:08:00,
2013-12-11 09:16:00,36.0,0.0,30.33,West,273,3.0,3.0,32,-99.99,,,-99.99,,2013-12-11 17:16:00,
2013-12-11 09:24:00,35.0,0.0,30.33,SW,233,3.0,5.0,30,-99.99,,,-99.99,,2013-12-11 17:24:00,
2013-12-11 09:32:00,35.0,0.0,30.33,ESE,105,1.0,5.0,31,-99.99,,,-99.99,,2013-12-11 17:32:00,
2013-12-11 09:40:00,35.0,0.0,30.33,ESE,105,1.0,5.0,31,-99.99,,,-99.99,,2013-12-11 17:40:00,
2013-12-11 09:48:00,38.0,0.0,30.33,WNW,298,1.0,2.0,29,-99.99,,,-99.99,,2013-12-11 17:48:00,
2013-12-11 09:56:00,39.0,0.0,30.33,NW,305,1.0,2.0,26,-99.99,,,-99.99,,2013-12-11 17:56:00,
2013-12-11 10:04:00,40.0,0.0,30.33,NNE,28,0.0,2.0,27,-99.99,,,-99.99,,2013-12-11 18:04:00,
2013-12-11 10:12:00,40.0,0.0,30.33,ESE,106,1.0,2.0,25,-99.99,,,-99.99,,2013-12-11 18:12:00,
2013-12-11 10:20:00,42.0,0.0,30.33,North,1,0.0,2.0,26,-99.99,,,-99.99,,2013-12-11 18:20:00,
2013-12-11 10:28:00,44.0,0.0,30.33,South,180,0.0,2.0,22,-99.99,,,-99.99,,2013-12-11 18:28:00,
2013-12-11 10:36:00,43.0,0.0,30.32,SW,218,0.0,2.0,23,-99.99,,,-99.99,,2013-12-11 18:36:00,
2013-12-11 10:44:00,42.0,0.0,30.32,SE,130,2.0,3.0,24,-99.99,,,-99.99,,2013-12-11 18:44:00,
2013-12-11 10:52:00,43.0,0.0,30.32,NNW,331,1.0,5.0,26,-99.99,,,-99.99,,2013-12-11 18:52:00,
2013-12-11 11:00:00,44.0,0.0,30.31,NW,316,1.0,5.0,24,-99.99,,,-99.99,,2013-12-11 19:00:00,
2013-12-11 11:08:00,45.0,0.0,30.31,NNW,337,0.0,5.0,27,-99.99,,,-99.99,,2013-12-11 19:08:00,
2013-12-11 11:16:00,48.0,0.0,30.30,ESE,102,0.0,2.0,23,-99.99,,,-99.99,,2013-12-11 19:16:00,
2013-12-11 11:24:00,47.0,0.0,30.30,ESE,111,0.0,2.0,23,-99.99,,,-99.99,,2013-12-11 19:24:00,
2013-12-11 11:32:00,46.0,0.0,30.29,SSE,159,2.0,3.0,22,-99.99,,,-99.99,,2013-12-11 19:32:00,
2013-12-11 11:40:00,46.0,0.0,30.29,South,186,1.0,5.0,23,-99.99,,,-99.99,,2013-12-11 19:40:00,
2013-12-11 11:48:00,47.0,0.0,30.29,SW,215,2.0,5.0,21,-99.99,,,-99.99,,2013-12-11 19:48:00,
2013-12-11 11:56:00,48.0,0.0,30.28,SE,140,3.0,5.0,20,-99.99,,,-99.99,,2013-12-11 19:56:00,
2013-12-11 12:04:00,48.0,0.0,30.28,South,170,3.0,5.0,24,-99.99,,,-99.99,,2013-12-11 20:04:00,
2013-12-11 12:12:00,48.0,0.0,30.28,NE,48,2.0,3.0,18,-99.99,,,-99.99,,2013-12-11 20:12:00,
2013-12-11 12:20:00,49.0,0.0,30.28,WNW,295,0.0,3.0,21,-99.99,,,-99.99,,2013-12-11 20:20:00,
2013-12-11 12:28:00,52.0,0.0,30.27,West,277,0.0,2.0,18,-99.99,,,-99.99,,2013-12-11 20:28:00,
2013-12-11 12:36:00,49.0,0.0,30.27,SSE,161,2.0,5.0,18,-99.99,,,-99.99,,2013-12-11 20:36:00,
2013-12-11 12:44:00,50.0,0.0,30.27,SE,125,3.0,6.0,18,-99.99,,,-99.99,,2013-12-11 20:44:00,
2013-12-11 12:52:00,50.0,0.0,30.26,SSE,163,2.0,6.0,20,-99.99,,,-99.99,,2013-12-11 20:52:00,
2013-12-11 13:00:00,50.0,0.0,30.26,SE,124,2.0,7.0,18,-99.99,,,-99.99,,2013-12-11 21:00:00,
2013-12-11 13:08:00,50.0,0.0,30.26,WSW,255,1.0,7.0,19,-99.99,,,-99.99,,2013-12-11 21:08:00,
2013-12-11 13:16:00,51.0,0.0,30.25,SSW,213,2.0,6.0,19,-99.99,,,-99.99,,2013-12-11 21:16:00,
2013-12-11 13:24:00,52.0,0.0,30.25,ESE,119,3.0,5.0,17,-99.99,,,-99.99,,2013-12-11 21:24:00,
2013-12-11 13:32:00,52.0,0.0,30.25,SSE,155,2.0,5.0,19,-99.99,,,-99.99,,2013-12-11 21:32:00,
2013-12-11 13:40:00,53.0,0.0,30.25,NNE,23,5.0,5.0,19,-99.99,,,-99.99,,2013-12-11 21:40:00,
2013-12-11 13:48:00,53.0,0.0,30.25,East,101,5.0,5.0,19,-99.99,,,-99.99,,2013-12-11 21:48:00,
2013-12-11 13:56:00,51.0,0.0,30.25,ESE,109,1.0,5.0,17,-99.99,,,-99.99,,2013-12-11 21:56:00,
2013-12-11 14:04:00,52.0,0.0,30.25,East,81,2.0,5.0,17,-99.99,,,-99.99,,2013-12-11 22:04:00,
2013-12-11 14:12:00,51.0,0.0,30.25,ESE,122,2.0,5.0,17,-99.99,,,-99.99,,2013-12-11 22:12:00,
2013-12-11 14:20:00,52.0,0.0,30.25,NNW,330,2.0,5.0,17,-99.99,,,-99.99,,2013-12-11 22:20:00,
2013-12-11 14:28:00,54.0,0.0,30.24,North,356,0.0,5.0,18,-99.99,,,-99.99,,2013-12-11 22:28:00,
2013-12-11 14:36:00,52.0,0.0,30.24,North,5,2.0,5.0,17,-99.99,,,-99.99,,2013-12-11 22:36:00,
2013-12-11 14:44:00,54.0,0.0,30.24,East,87,0.0,3.0,18,-99.99,,,-99.99,,2013-12-11 22:44:00,
2013-12-11 14:52:00,52.0,0.0,30.24,ENE,62,2.0,3.0,18,-99.99,,,-99.99,,2013-12-11 22:52:00,
2013-12-11 15:00:00,52.0,0.0,30.24,ENE,71,2.0,3.0,17,-99.99,,,-99.99,,2013-12-11 23:00:00,
2013-12-11 15:08:00,53.0,0.0,30.24,NNE,13,2.0,3.0,17,-99.99,,,-99.99,,2013-12-11 23:08:00,
2013-12-11 15:16:00,52.0,0.0,30.24,NE,38,1.0,5.0,17,-99.99,,,-99.99,,2013-12-11 23:16:00,
2013-12-11 15:24:00,53.0,0.0,30.24,NW,326,0.0,5.0,17,-99.99,,,-99.99,,2013-12-11 23:24:00,
2013-12-11 15:32:00,53.0,0.0,30.24,North,352,2.0,3.0,19,-99.99,,,-99.99,,2013-12-11 23:32:00,
2013-12-11 15:40:00,53.0,0.0,30.24,West,269,1.0,5.0,17,-99.99,,,-99.99,,2013-12-11 23:40:00,
2013-12-11 15:48:00,53.0,0.0,30.24,WNW,300,1.0,2.0,16,-99.99,,,-99.99,,2013-12-11 23:48:00,
2013-12-11 15:56:00,53.0,0.0,30.24,South,178,3.0,3.0,17,-99.99,,,-99.99,,2013-12-11 23:56:00,
2013-12-11 16:04:00,52.0,0.0,30.24,SE,143,2.0,5.0,19,-99.99,,,-99.99,,2013-12-12 00:04:00,
2013-12-11 16:12:00,51.0,0.0,30.24,SE,126,2.0,3.0,20,-99.99,,,-99.99,,2013-12-12 00:12:00,
2013-12-11 16:20:00,50.0,0.0,30.24,SE,132,2.0,3.0,22,-99.99,,,-99.99,,2013-12-12 00:20:00,
2013-12-11 16:28:00,50.0,0.0,30.25,ESE,122,2.0,3.0,21,-99.99,,,-99.99,,2013-12-12 00:28:00,
2013-12-11 16:36:00,49.0,0.0,30.25,SE,126,2.0,2.0,21,-99.99,,,-99.99,,2013-12-12 00:36:00,
2013-12-11 16:44:00,49.0,0.0,30.25,SE,142,2.0,2.0,19,-99.99,,,-99.99,,2013-12-12 00:44:00,
2013-12-11 16:52:00,48.0,0.0,30.25,SSE,156,3.0,3.0,20,-99.99,,,-99.99,,2013-12-12 00:52:00,
2013-12-11 17:00:00,48.0,0.0,30.25,SSE,151,3.0,3.0,19,-99.99,,,-99.99,,2013-12-12 01:00:00,
2013-12-11 17:08:00,48.0,0.0,30.25,SE,146,3.0,3.0,19,-99.99,,,-99.99,,2013-12-12 01:08:00,
2013-12-11 17:16:00,47.0,0.0,30.25,SSE,147,3.0,3.0,20,-99.99,,,-99.99,,2013-12-12 01:16:00,
2013-12-11 17:24:00,46.0,0.0,30.26,SSE,155,3.0,3.0,23,-99.99,,,-99.99,,2013-12-12 01:24:00,
2013-12-11 17:32:00,46.0,0.0,30.26,SSE,161,3.0,3.0,21,-99.99,,,-99.99,,2013-12-12 01:32:00,
2013-12-11 17:40:00,46.0,0.0,30.26,SSE,163,3.0,3.0,21,-99.99,,,-99.99,,2013-12-12 01:40:00,
2013-12-11 17:48:00,46.0,0.0,30.26,South,180,2.0,3.0,23,-99.99,,,-99.99,,2013-12-12 01:48:00,
2013-12-11 17:56:00,46.0,0.0,30.26,South,185,3.0,3.0,21,-99.99,,,-99.99,,2013-12-12 01:56:00,
2013-12-11 18:04:00,46.0,0.0,30.26,South,170,1.0,3.0,23,-99.99,,,-99.99,,2013-12-12 02:04:00,
2013-12-11 18:12:00,38.0,0.0,30.26,East,94,2.0,5.0,30,-99.99,,,-99.99,,2013-12-12 02:12:00,
2013-12-11 18:20:00,37.0,0.0,30.27,North,351,2.0,7.0,30,-99.99,,,-99.99,,2013-12-12 02:20:00,
2013-12-11 18:28:00,38.0,0.0,30.27,NNW,336,1.0,2.0,28,-99.99,,,-99.99,,2013-12-12 02:28:00,
2013-12-11 18:36:00,39.0,0.0,30.27,NNW,336,0.0,2.0,28,-99.99,,,-99.99,,2013-12-12 02:36:00,
2013-12-11 18:44:00,39.0,0.0,30.27,South,187,2.0,2.0,29,-99.99,,,-99.99,,2013-12-12 02:44:00,
2013-12-11 18:52:00,40.0,0.0,30.27,SSW,197,1.0,2.0,27,-99.99,,,-99.99,,2013-12-12 02:52:00,
2013-12-11 19:00:00,39.0,0.0,30.28,SSW,213,1.0,2.0,29,-99.99,,,-99.99,,2013-12-12 03:00:00,
2013-12-11 19:08:00,35.0,0.0,30.28,West,261,3.0,5.0,31,-99.99,,,-99.99,,2013-12-12 03:08:00,
2013-12-11 19:16:00,32.0,0.0,30.28,West,272,5.0,6.0,32,-99.99,,,-99.99,,2013-12-12 03:16:00,
2013-12-11 19:24:00,33.0,0.0,30.28,West,277,6.0,7.0,33,-99.99,,,-99.99,,2013-12-12 03:24:00,
2013-12-11 19:32:00,33.0,0.0,30.28,West,281,6.0,7.0,33,-99.99,,,-99.99,,2013-12-12 03:32:00,
2013-12-11 19:40:00,32.0,0.0,30.28,WNW,284,6.0,7.0,32,-99.99,,,-99.99,,2013-12-12 03:40:00,
2013-12-11 19:48:00,30.0,0.0,30.28,WNW,283,5.0,6.0,37,-99.99,,,-99.99,,2013-12-12 03:48:00,
2013-12-11 19:56:00,30.0,0.0,30.29,West,281,5.0,6.0,37,-99.99,,,-99.99,,2013-12-12 03:56:00,
2013-12-11 20:04:00,28.0,0.0,30.29,SSE,152,2.0,6.0,36,-99.99,,,-99.99,,2013-12-12 04:04:00,
2013-12-11 20:12:00,28.0,0.0,30.29,South,191,3.0,3.0,39,-99.99,,,-99.99,,2013-12-12 04:12:00,
2013-12-11 20:20:00,29.0,0.0,30.29,SW,233,5.0,5.0,39,-99.99,,,-99.99,,2013-12-12 04:20:00,
2013-12-11 20:28:00,28.0,0.0,30.29,SSW,212,6.0,6.0,40,-99.99,,,-99.99,,2013-12-12 04:28:00,
2013-12-11 20:36:00,29.0,0.0,30.29,SW,218,5.0,6.0,41,-99.99,,,-99.99,,2013-12-12 04:36:00,
2013-12-11 20:44:00,29.0,0.0,30.29,SSW,197,5.0,6.0,40,-99.99,,,-99.99,,2013-12-12 04:44:00,
2013-12-11 20:52:00,29.0,0.0,30.29,SSW,206,2.0,6.0,41,-99.99,,,-99.99,,2013-12-12 04:52:00,
2013-12-11 21:00:00,28.0,0.0,30.29,South,187,5.0,5.0,40,-99.99,,,-99.99,,2013-12-12 05:00:00,
2013-12-11 21:04:00,28.0,0.0,30.30,South,180,3.0,5.0,40,-99.99,,,-99.99,,2013-12-12 05:04:00,
2013-12-11 21:08:00,28.0,0.0,30.29,South,185,3.0,5.0,39,-99.99,,,-99.99,,2013-12-12 05:08:00,
2013-12-11 21:16:00,28.0,0.0,30.29,South,188,2.0,5.0,40,-99.99,,,-99.99,,2013-12-12 05:16:00,
2013-12-11 21:20:00,28.0,0.0,30.29,SSW,199,2.0,3.0,43,-99.99,,,-99.99,,2013-12-12 05:20:00,
2013-12-11 21:28:00,29.0,0.0,30.30,South,190,3.0,3.0,40,-99.99,,,-99.99,,2013-12-12 05:28:00,
2013-12-11 21:32:00,29.0,0.0,30.29,South,190,2.0,3.0,39,-99.99,,,-99.99,,2013-12-12 05:32:00,
2013-12-11 21:40:00,30.0,0.0,30.29,SSW,199,2.0,3.0,39,-99.99,,,-99.99,,2013-12-12 05:40:00,
2013-12-11 21:48:00,28.0,0.0,30.30,SSE,168,5.0,5.0,41,-99.99,,,-99.99,,2013-12-12 05:48:00,
2013-12-11 21:56:00,27.0,0.0,30.30,SSE,161,2.0,5.0,45,-99.99,,,-99.99,,2013-12-12 05:56:00,
2013-12-11 22:04:00,26.0,0.0,30.29,South,187,5.0,5.0,46,-99.99,,,-99.99,,2013-12-12 06:04:00,
2013-12-11 22:12:00,27.0,0.0,30.30,South,185,2.0,5.0,45,-99.99,,,-99.99,,2013-12-12 06:12:00,
2013-12-11 22:20:00,26.0,0.0,30.30,WSW,253,1.0,2.0,45,-99.99,,,-99.99,,2013-12-12 06:20:00,
2013-12-11 22:28:00,24.0,0.0,30.30,West,269,0.0,2.0,47,-99.99,,,-99.99,,2013-12-12 06:28:00,
2013-12-11 22:36:00,22.0,0.0,30.30,NNW,339,3.0,3.0,52,-99.99,,,-99.99,,2013-12-12 06:36:00,
2013-12-11 22:44:00,22.0,0.0,30.30,NNW,348,3.0,5.0,50,-99.99,,,-99.99,,2013-12-12 06:44:00,
2013-12-11 22:52:00,23.0,0.0,30.30,North,356,2.0,5.0,50,-99.99,,,-99.99,,2013-12-12 06:52:00,
2013-12-11 23:00:00,24.0,0.0,30.30,North,7,0.0,2.0,46,-99.99,,,-99.99,,2013-12-12 07:00:00,
2013-12-11 23:08:00,25.0,0.0,30.29,North,7,0.0,0.0,46,-99.99,,,-99.99,,2013-12-12 07:08:00,
2013-12-11 23:16:00,24.0,0.0,30.30,NNW,335,1.0,2.0,45,-99.99,,,-99.99,,2013-12-12 07:16:00,
2013-12-11 23:24:00,23.0,0.0,30.30,NW,304,1.0,2.0,49,-99.99,,,-99.99,,2013-12-12 07:24:00,
2013-12-11 23:32:00,22.0,0.0,30.30,NW,324,2.0,2.0,48,-99.99,,,-99.99,,2013-12-12 07:32:00,
2013-12-11 23:40:00,22.0,0.0,30.30,NNW,346,2.0,3.0,47,-99.99,,,-99.99,,2013-12-12 07:40:00,
2013-12-11 23:48:00,23.0,0.0,30.30,NW,324,0.0,3.0,46,-99.99,,,-99.99,,2013-12-12 07:48:00,
2013-12-11 23:56:00,23.0,0.0,30.30,West,272,3.0,3.0,43,-99.99,,,-99.99,,2013-12-12 07:56:00,